• In Netherlands
  • List of Countries
  • For 7 days
  • Water Temperature
  • Satellite Maps
  • Weather Map
  • Weather Widgets
  • user-avatar
    Login

    Hourly Weather Herāt

    Today, 23 September, Saturday

    Time Temperature Precipitation Wind Pressure Humidity
    00:00 +21°C° 0 mm 4 mps 679 mmHg 21%
    01:00 +20°C° 0 mm 4 mps 678 mmHg 21%
    02:00 +20°C° 0 mm 4 mps 678 mmHg 22%
    03:00 +19°C° 0 mm 3 mps 678 mmHg 22%
    04:00 +19°C° 0 mm 3 mps 678 mmHg 23%
    05:00 +19°C° 0 mm 3 mps 679 mmHg 22%
    06:00 +20°C° 0 mm 3 mps 679 mmHg 22%
    07:00 +20°C° 0 mm 3 mps 679 mmHg 21%
    08:00 +23°C° 0 mm 4 mps 680 mmHg 19%
    09:00 +26°C° 0 mm 4 mps 680 mmHg 17%
    10:00 +28°C° 0 mm 4 mps 681 mmHg 14%
    11:00 +29°C° 0 mm 5 mps 681 mmHg 13%
    12:00 +30°C° 0 mm 5 mps 681 mmHg 12%
    13:00 +32°C° 0 mm 5 mps 680 mmHg 10%
    14:00 +30°C° 0 mm 6 mps 680 mmHg 11%
    15:00 +30°C° 0 mm 6 mps 680 mmHg 11%
    16:00 +30°C° 0 mm 7 mps 680 mmHg 11%
    17:00 +28°C° 0 mm 6 mps 680 mmHg 12%
    18:00 +27°C° 0 mm 6 mps 680 mmHg 14%
    19:00 +24°C° 0 mm 6 mps 680 mmHg 15%
    20:00 +23°C° 0 mm 6 mps 680 mmHg 15%
    21:00 +23°C° 0 mm 6 mps 680 mmHg 16%
    22:00 +22°C° 0 mm 6 mps 681 mmHg 16%
    23:00 +21°C° 0 mm 5 mps 680 mmHg 16%

    Tomorrow, 24 September, Sunday

    Time Temperature Precipitation Wind Pressure Humidity
    00:00 +21°C° 0 mm 5 mps 680 mmHg 17%
    01:00 +20°C° 0 mm 5 mps 680 mmHg 17%
    02:00 +20°C° 0 mm 5 mps 680 mmHg 18%
    03:00 +19°C° 0 mm 4 mps 680 mmHg 18%
    04:00 +19°C° 0 mm 4 mps 680 mmHg 19%
    05:00 +19°C° 0 mm 4 mps 680 mmHg 18%
    06:00 +20°C° 0 mm 4 mps 680 mmHg 18%
    07:00 +20°C° 0 mm 5 mps 681 mmHg 17%
    08:00 +22°C° 0 mm 5 mps 681 mmHg 15%
    09:00 +26°C° 0 mm 6 mps 682 mmHg 13%
    10:00 +28°C° 0 mm 6 mps 682 mmHg 11%
    11:00 +29°C° 0 mm 7 mps 682 mmHg 10%
    12:00 +30°C° 0 mm 7 mps 682 mmHg 9%
    13:00 +31°C° 0 mm 8 mps 682 mmHg 8%
    14:00 +31°C° 0 mm 8 mps 681 mmHg 9%
    15:00 +31°C° 0 mm 9 mps 681 mmHg 9%
    16:00 +29°C° 0 mm 9 mps 681 mmHg 9%
    17:00 +28°C° 0 mm 9 mps 681 mmHg 10%
    18:00 +26°C° 0 mm 8 mps 681 mmHg 12%
    19:00 +24°C° 0 mm 7 mps 681 mmHg 13%
    20:00 +23°C° 0 mm 7 mps 681 mmHg 13%
    21:00 +22°C° 0 mm 7 mps 681 mmHg 14%
    22:00 +22°C° 0 mm 6 mps 681 mmHg 14%
    23:00 +21°C° 0 mm 6 mps 681 mmHg 14%

    Day after tomorrow, 25 September, Monday

    Time Temperature Precipitation Wind Pressure Humidity
    00:00 +21°C° 0 mm 6 mps 681 mmHg 15%
    01:00 +20°C° 0 mm 5 mps 681 mmHg 15%
    02:00 +20°C° 0 mm 5 mps 681 mmHg 16%
    03:00 +19°C° 0 mm 5 mps 680 mmHg 17%
    04:00 +19°C° 0 mm 5 mps 680 mmHg 18%
    05:00 +19°C° 0 mm 5 mps 681 mmHg 17%
    06:00 +20°C° 0 mm 5 mps 681 mmHg 17%
    07:00 +20°C° 0 mm 5 mps 682 mmHg 17%
    08:00 +22°C° 0 mm 6 mps 682 mmHg 15%
    09:00 +24°C° 0 mm 7 mps 682 mmHg 13%
    10:00 +27°C° 0 mm 8 mps 683 mmHg 12%
    11:00 +28°C° 0 mm 8 mps 682 mmHg 12%
    12:00 +29°C° 0 mm 8 mps 682 mmHg 11%
    13:00 +31°C° 0 mm 9 mps 681 mmHg 11%
    14:00 +29°C° 0 mm 9 mps 681 mmHg 12%
    15:00 +29°C° 0 mm 9 mps 681 mmHg 13%
    16:00 +29°C° 0 mm 10 mps 681 mmHg 13%
    17:00 +27°C° 0 mm 9 mps 681 mmHg 15%
    18:00 +26°C° 0 mm 8 mps 681 mmHg 16%
    19:00 +23°C° 0 mm 8 mps 681 mmHg 18%
    20:00 +22°C° 0 mm 7 mps 681 mmHg 18%
    21:00 +22°C° 0 mm 7 mps 681 mmHg 19%
    22:00 +21°C° 0 mm 6 mps 681 mmHg 19%
    23:00 +20°C° 0 mm 6 mps 681 mmHg 19%

    26 September, Tuesday

    Time Temperature Precipitation Wind Pressure Humidity
    00:00 +20°C° 0 mm 5 mps 680 mmHg 19%
    01:00 +19°C° 0 mm 5 mps 680 mmHg 20%
    02:00 +19°C° 0 mm 5 mps 680 mmHg 20%
    03:00 +19°C° 0 mm 5 mps 680 mmHg 20%
    04:00 +17°C° 0 mm 5 mps 680 mmHg 20%
    05:00 +19°C° 0 mm 5 mps 680 mmHg 19%
    06:00 +19°C° 0 mm 5 mps 680 mmHg 19%
    07:00 +20°C° 0 mm 5 mps 681 mmHg 18%
    08:00 +22°C° 0 mm 5 mps 681 mmHg 15%
    09:00 +24°C° 0 mm 6 mps 681 mmHg 13%
    10:00 +27°C° 0 mm 6 mps 682 mmHg 11%
    11:00 +28°C° 0 mm 7 mps 681 mmHg 10%
    12:00 +29°C° 0 mm 7 mps 681 mmHg 9%
    13:00 +30°C° 0 mm 7 mps 681 mmHg 9%
    14:00 +30°C° 0 mm 7 mps 681 mmHg 9%
    15:00 +29°C° 0 mm 7 mps 680 mmHg 9%
    16:00 +29°C° 0 mm 8 mps 680 mmHg 10%
    17:00 +27°C° 0 mm 7 mps 680 mmHg 11%
    18:00 +26°C° 0 mm 6 mps 680 mmHg 12%
    19:00 +23°C° 0 mm 5 mps 680 mmHg 13%
    20:00 +22°C° 0 mm 5 mps 680 mmHg 13%
    21:00 +22°C° 0 mm 4 mps 680 mmHg 14%
    22:00 +21°C° 0 mm 4 mps 681 mmHg 14%
    23:00 +21°C° 0 mm 4 mps 680 mmHg 15%

    27 September, Wednesday

    Time Temperature Precipitation Wind Pressure Humidity
    00:00 +20°C° 0 mm 4 mps 680 mmHg 15%
    01:00 +20°C° 0 mm 4 mps 680 mmHg 15%
    02:00 +20°C° 0 mm 4 mps 680 mmHg 15%
    03:00 +19°C° 0 mm 4 mps 680 mmHg 16%
    04:00 +19°C° 0 mm 4 mps 680 mmHg 16%
    05:00 +19°C° 0 mm 4 mps 681 mmHg 16%
    06:00 +20°C° 0 mm 5 mps 681 mmHg 15%
    07:00 +20°C° 0 mm 5 mps 682 mmHg 15%
    08:00 +22°C° 0 mm 6 mps 682 mmHg 14%
    09:00 +24°C° 0 mm 6 mps 683 mmHg 14%
    10:00 +27°C° 0 mm 7 mps 683 mmHg 13%
    11:00 +28°C° 0 mm 7 mps 683 mmHg 12%
    12:00 +28°C° 0 mm 7 mps 683 mmHg 12%
    13:00 +29°C° 0 mm 8 mps 682 mmHg 11%
    14:00 +29°C° 0 mm 8 mps 682 mmHg 11%
    15:00 +28°C° 0 mm 8 mps 682 mmHg 12%
    16:00 +28°C° 0 mm 8 mps 682 mmHg 12%
    17:00 +27°C° 0 mm 8 mps 682 mmHg 15%
    18:00 +24°C° 0 mm 7 mps 682 mmHg 18%
    19:00 +22°C° 0 mm 7 mps 682 mmHg 20%
    20:00 +22°C° 0 mm 6 mps 682 mmHg 24%
    21:00 +21°C° 0 mm 6 mps 682 mmHg 27%
    22:00 +20°C° 0 mm 6 mps 682 mmHg 31%
    23:00 +19°C° 0 mm 5 mps 682 mmHg 31%

    28 September, Thursday

    Time Temperature Precipitation Wind Pressure Humidity
    00:00 +19°C° 0 mm 5 mps 682 mmHg 32%
    01:00 +18°C° 0 mm 4 mps 681 mmHg 32%
    02:00 +18°C° 0 mm 4 mps 681 mmHg 31%
    03:00 +17°C° 0 mm 4 mps 681 mmHg 30%
    04:00 +17°C° 0 mm 4 mps 681 mmHg 30%
    05:00 +18°C° 0 mm 3 mps 681 mmHg 28%
    06:00 +18°C° 0 mm 3 mps 681 mmHg 26%
    07:00 +19°C° 0 mm 3 mps 681 mmHg 24%
    08:00 +21°C° 0 mm 3 mps 682 mmHg 21%
    09:00 +24°C° 0 mm 3 mps 682 mmHg 17%
    10:00 +27°C° 0 mm 4 mps 682 mmHg 14%
    11:00 +28°C° 0 mm 4 mps 682 mmHg 13%
    12:00 +29°C° 0 mm 4 mps 681 mmHg 12%
    13:00 +30°C° 0 mm 5 mps 681 mmHg 11%
    14:00 +30°C° 0 mm 5 mps 681 mmHg 12%
    15:00 +30°C° 0 mm 6 mps 681 mmHg 12%
    16:00 +29°C° 0 mm 6 mps 680 mmHg 12%
    17:00 +28°C° 0 mm 6 mps 681 mmHg 13%
    18:00 +26°C° 0 mm 5 mps 681 mmHg 15%
    19:00 +25°C° 0 mm 5 mps 681 mmHg 16%
    20:00 +23°C° 0 mm 4 mps 681 mmHg 17%
    21:00 +22°C° 0 mm 4 mps 681 mmHg 18%
    22:00 +22°C° 0 mm 4 mps 681 mmHg 18%
    23:00 +21°C° 0 mm 4 mps 681 mmHg 19%
    Show more